This is the latest recevied weather packets stored in our database for station/object EA7RX-4. If no packets are shown the sender has not sent any weather packets the latest 10 day(s).
| Time | Temp. | Humidity | Pressure | Rain* | Wind** | Luminosity | Snow |
|---|---|---|---|---|---|---|---|
| 1787793603 | 16.11° C | 77% | 1012.7 hPa | 0 mm | - | 0 W/m² | - |
| 1787793003 | 16.67° C | 77% | 1012.5 hPa | 0 mm | - | 0 W/m² | - |
| 1787792403 | 16.67° C | 74% | 1012.6 hPa | 0 mm | - | 0 W/m² | - |
| 1787791803 | 16.67° C | 74% | 1012.7 hPa | 0 mm | - | 0 W/m² | - |
| 1787791203 | 16.67° C | 72% | 1012.8 hPa | 0 mm | - | 0 W/m² | - |
| 1787790603 | 16.67° C | 69% | 1012.6 hPa | 0 mm | - | 0 W/m² | - |
| 1787790003 | 17.22° C | 67% | 1012.8 hPa | 0 mm | - | 0 W/m² | - |
| 1787789403 | 17.22° C | 65% | 1012.9 hPa | 0 mm | - | 0 W/m² | - |
| 1787788803 | 17.22° C | 64% | 1012.7 hPa | 0 mm | - | 0 W/m² | - |
| 1787788203 | 17.78° C | 62% | 1012.8 hPa | 0 mm | - | 0 W/m² | - |
| 1787787603 | 17.78° C | 61% | 1012.8 hPa | 0 mm | - | 0 W/m² | - |
| 1787787003 | 17.78° C | 59% | 1012.8 hPa | 0 mm | - | 0 W/m² | - |
| 1787786403 | 18.33° C | 59% | 1012.8 hPa | 0 mm | - | 0 W/m² | - |
| 1787785803 | 18.33° C | 58% | 1013.3 hPa | 0 mm | - | 0 W/m² | - |
| 1787785203 | 18.33° C | 56% | 1013 hPa | 0 mm | - | 0 W/m² | - |
| 1787784603 | 19.44° C | 53% | 1013.1 hPa | 0 mm | - | 0 W/m² | - |
| 1787784003 | 20° C | 51% | 1012.7 hPa | 0 mm | - | 0 W/m² | - |
| 1787783403 | 20.56° C | 49% | 1012.9 hPa | 0 mm | - | 0 W/m² | - |
| 1787782803 | 21.11° C | 46% | 1012.8 hPa | 0 mm | - | 0 W/m² | - |
| 1787782203 | 21.11° C | 46% | 1012.9 hPa | 0 mm | - | 0 W/m² | - |
| 1787781603 | 21.11° C | 45% | 1012.6 hPa | 0 mm | - | 0 W/m² | - |
| 1787781003 | 21.11° C | 45% | 1012.4 hPa | 0 mm | - | 0 W/m² | - |
| 1787780403 | 21.67° C | 45% | 1012.2 hPa | 0 mm | - | 0 W/m² | - |
| 1787779803 | 21.67° C | 45% | 1012.4 hPa | 0 mm | - | 0 W/m² | - |
| 1787779203 | 21.67° C | 45% | 1012.4 hPa | 0 mm | - | 0 W/m² | - |
* Rain latest hour (hover to see other rain measurements)
** Current wind speed in m/s (hover to see current wind gust speed)